FW6964 Weather Reports


Display with metric or nautical units.
time (UTC)temp
F
wind
direction
speed
MPH
gust
MPH
rain 1hr
in
rain 24hr
in
rain mn
in
humidity
%
barometer
mb
20260906125046 80 257 3.0 10.0 0.00 0.00 0.00 87 1004.7
20260906124548 79 256 2.0 7.0 0.00 0.00 0.00 87 1004.7
20260906124044 79 252 2.0 7.0 0.00 0.00 0.00 88 1004.7
20260906123543 79 253 2.0 7.0 0.00 0.00 0.00 89 1004.6
20260906123041 78 245 1.0 7.0 0.00 0.00 0.00 89 1004.5
20260906122541 78 251 3.0 7.0 0.00 0.00 0.00 89 1004.6
20260906122037 78 248 2.0 5.0 0.00 0.00 0.00 90 1004.6
20260906121537 77 265 1.0 6.0 0.00 0.00 0.00 90 1004.6
20260906121035 77 246 2.0 5.0 0.00 0.00 0.00 90 1004.6
20260906120535 77 248 1.0 5.0 0.00 0.00 0.00 90 1004.6
20260906120032 77 240 2.0 5.0 0.00 0.00 0.00 91 1004.5
20260906115531 77 277 3.0 6.0 0.00 0.00 0.00 91 1004.5
20260906115030 77 252 1.0 3.0 0.00 0.00 0.00 91 1004.4
20260906114529 76 252 0.0 4.0 0.00 0.00 0.00 91 1004.4
20260906114027 76 252 1.0 5.0 0.00 0.00 0.00 91 1004.4
20260906113526 76 252 1.0 6.0 0.00 0.00 0.00 91 1004.3
20260906113025 76 272 2.0 6.0 0.00 0.00 0.00 91 1004.4
20260906112524 76 272 3.0 4.0 0.00 0.00 0.00 91 1004.3
20260906112022 76 271 3.0 6.0 0.00 0.00 0.00 90 1004.2
20260906111522 76 269 0.0 3.0 0.00 0.00 0.00 90 1004.2
20260906111021 76 256 0.0 4.0 0.00 0.00 0.00 90 1004.2
20260906110522 77 254 0.0 5.0 0.00 0.00 0.00 90 1004.1
20260906110023 77 254 2.0 7.0 0.00 0.00 0.00 90 1003.9
20260906105521 77 244 2.0 7.0 0.00 0.00 0.00 90 1003.8
20260906105023 77 244 2.0 5.0 0.00 0.00 0.00 90 1003.8
20260906104521 77 245 2.0 5.0 0.00 0.00 0.00 90 1003.6
20260906104020 77 248 1.0 3.0 0.00 0.00 0.00 90 1003.5
20260906103520 77 248 1.0 4.0 0.00 0.00 0.00 90 1003.4
20260906103040 77 248 1.0 4.0 0.00 0.00 0.00 89 1003.3
20260906102522 77 248 1.0 3.0 0.00 0.00 0.00 89 1003.4
20260906102019 77 248 0.0 3.0 0.00 0.00 0.00 89 1003.4
20260906101519 77 248 0.0 0.0 0.00 0.00 0.00 89 1003.4
20260906101023 77 248 0.0 0.0 0.00 0.00 0.00 89 1003.4
20260906100519 77 248 0.0 3.0 0.00 0.00 0.00 89 1003.4
20260906100026 77 248 0.0 4.0 0.00 0.00 0.00 89 1003.4
20260906095518 77 248 2.0 4.0 0.00 0.00 0.00 89 1003.3
20260906095120 77 248 1.0 3.0 0.00 0.00 0.00 89 1003.4
20260906094518 77 248 0.0 3.0 0.00 0.00 0.00 89 1003.3
20260906094017 77 248 1.0 3.0 0.00 0.00 0.00 89 1003.3
20260906093517 77 248 1.0 5.0 0.00 0.00 0.00 89 1003.2
20260906093019 77 248 2.0 5.0 0.00 0.00 0.00 89 1003.1
20260906092521 77 256 2.0 3.0 0.00 0.00 0.00 89 1003.1
20260906092017 77 256 1.0 3.0 0.00 0.00 0.00 89 1003.1
20260906091516 77 256 0.0 2.0 0.00 0.00 0.00 89 1003.2
20260906091016 77 256 0.0 2.0 0.00 0.00 0.00 89 1003.0
20260906090517 77 256 0.0 3.0 0.00 0.00 0.00 89 1003.1
20260906090016 77 256 1.0 3.0 0.00 0.00 0.00 89 1003.1
20260906085515 77 256 0.0 2.0 0.00 0.00 0.00 89 1003.0
20260906085015 77 256 0.0 3.0 0.00 0.00 0.00 89 1002.9
20260906084515 77 256 1.0 3.0 0.00 0.00 0.00 89 1003.0
20260906084020 77 256 0.0 2.0 0.00 0.00 0.00 89 1003.0
20260906083515 77 256 0.0 3.0 0.00 0.00 0.00 89 1002.9
20260906083016 77 257 1.0 3.0 0.00 0.00 0.00 89 1003.0
20260906082518 77 257 1.0 3.0 0.00 0.00 0.00 89 1003.0
20260906082015 77 257 1.0 3.0 0.00 0.00 0.00 89 1003.0
20260906081513 77 257 0.0 3.0 0.00 0.00 0.00 89 1003.0
20260906081014 77 257 0.0 3.0 0.00 0.00 0.00 89 1002.9
20260906080514 77 257 1.0 3.0 0.00 0.00 0.00 89 1003.0
20260906080013 77 257 0.0 4.0 0.00 0.00 0.00 89 1003.0
20260906075514 77 256 1.0 4.0 0.00 0.00 0.00 89 1002.9
20260906075013 77 256 2.0 4.0 0.00 0.00 0.00 89 1003.0
20260906074513 77 255 2.0 4.0 0.00 0.00 0.00 89 1003.0
20260906074012 77 254 1.0 3.0 0.00 0.00 0.00 89 1003.0
20260906073513 77 254 1.0 3.0 0.00 0.00 0.00 89 1003.0
20260906073012 77 254 0.0 3.0 0.00 0.00 0.00 89 1003.0
20260906072512 77 257 2.0 3.0 0.00 0.00 0.00 89 1003.0
20260906072011 77 257 1.0 3.0 0.00 0.00 0.00 88 1003.1
20260906071510 77 257 1.0 3.0 0.00 0.00 0.00 88 1003.2
20260906071011 77 257 1.0 3.0 0.00 0.00 0.00 88 1003.2
20260906070510 77 257 2.0 3.0 0.00 0.00 0.00 88 1003.3
20260906070009 77 257 2.0 3.0 0.00 0.00 0.00 88 1003.2
20260906065509 77 257 1.0 3.0 0.00 0.00 0.00 88 1003.2
20260906065009 77 257 2.0 3.0 0.00 0.00 0.00 87 1003.2
20260906064508 77 257 0.0 3.0 0.00 0.00 0.00 87 1003.4
20260906064008 78 257 0.0 3.0 0.00 0.00 0.00 87 1003.4
20260906063512 78 257 1.0 3.0 0.00 0.00 0.00 86 1003.3
20260906063006 78 257 1.0 4.0 0.00 0.00 0.00 86 1003.3
20260906062505 78 257 2.0 4.0 0.00 0.00 0.00 86 1003.3
20260906062004 78 257 1.0 3.0 0.00 0.00 0.00 86 1003.4
20260906061509 78 261 1.0 4.0 0.00 0.00 0.00 86 1003.4
20260906061003 78 261 1.0 4.0 0.00 0.00 0.00 86 1003.6
20260906060503 78 262 1.0 4.0 0.00 0.00 0.00 86 1003.6
20260906060004 78 268 1.0 6.0 0.00 0.00 0.00 86 1003.6
20260906055503 78 274 3.0 6.0 0.00 0.00 0.00 86 1003.5
20260906055004 78 246 2.0 5.0 0.00 0.00 0.00 85 1003.6
20260906054508 79 225 1.0 5.0 0.00 0.00 0.00 85 1003.5
20260906054002 79 233 1.0 5.0 0.00 0.00 0.00 85 1003.5
20260906053501 79 224 1.0 5.0 0.00 0.00 0.00 85 1003.6
20260906053002 79 224 2.0 6.0 0.00 0.00 0.00 85 1003.6
20260906052502 79 211 2.0 6.0 0.00 0.00 0.00 85 1003.5
20260906052001 79 251 2.0 4.0 0.00 0.00 0.00 85 1003.7
20260906051500 79 261 1.0 4.0 0.00 0.00 0.00 85 1003.8
20260906051100 79 261 2.0 4.0 0.00 0.00 0.00 84 1003.8
20260906050559 79 264 2.0 4.0 0.00 0.00 0.00 84 1003.6
20260906050100 79 272 1.0 4.0 0.00 0.00 0.00 85 1003.7
20260906045603 79 272 1.0 6.0 0.00 0.00 0.00 84 1003.7
20260906045059 79 271 3.0 6.0 0.00 0.00 0.00 84 1003.6
20260906044558 79 254 1.0 4.0 0.00 0.00 0.00 84 1003.4
20260906044058 79 257 2.0 5.0 0.00 0.00 0.00 84 1003.6
20260906043600 79 257 2.0 5.0 0.00 0.00 0.00 84 1003.6
20260906043056 79 240 1.0 5.0 0.00 0.00 0.00 83 1003.8
20260906042556 79 242 2.0 4.0 0.00 0.00 0.00 83 1003.8
20260906042055 79 243 2.0 4.0 0.00 0.00 0.00 83 1003.8
20260906041554 80 200 2.0 5.0 0.00 0.00 0.00 83 1003.9
20260906041056 80 199 2.0 5.0 0.00 0.00 0.00 83 1003.9
20260906040552 79 219 3.0 5.0 0.00 0.00 0.00 83 1004.0
20260906040051 80 213 1.0 3.0 0.00 0.00 0.00 82 1004.3
20260906035551 80 212 1.0 5.0 0.00 0.00 0.00 82 1004.3
20260906035051 80 207 3.0 5.0 0.00 0.00 0.00 82 1004.3
20260906034601 80 198 1.0 4.0 0.00 0.00 0.00 82 1004.5
20260906034051 80 197 2.0 6.0 0.00 0.00 0.00 82 1004.4
20260906033552 80 196 2.0 6.0 0.00 0.00 0.00 81 1004.4
20260906033054 81 186 2.0 5.0 0.00 0.00 0.00 81 1004.3
20260906032551 81 194 2.0 4.0 0.00 0.00 0.00 81 1004.4
20260906032051 81 195 2.0 4.0 0.00 0.00 0.00 81 1004.4
20260906031550 80 211 2.0 4.0 0.00 0.00 0.00 82 1004.6
20260906031054 80 213 2.0 3.0 0.00 0.00 0.00 82 1004.8
20260906030550 81 213 2.0 3.0 0.00 0.00 0.00 81 1004.8
20260906030050 81 213 1.0 4.0 0.00 0.00 0.00 81 1004.8
20260906025549 81 213 2.0 5.0 0.00 0.00 0.00 81 1004.9
20260906025050 81 213 3.0 6.0 0.00 0.00 0.00 81 1004.8
20260906024549 81 212 3.0 6.0 0.00 0.00 0.00 81 1004.8
20260906024051 81 211 1.0 3.0 0.00 0.00 0.00 81 1004.7
20260906023549 81 211 2.0 3.0 0.00 0.00 0.00 81 1004.7
20260906023051 81 210 1.0 4.0 0.00 0.00 0.00 81 1004.7
20260906022552 81 208 2.0 4.0 0.00 0.00 0.00 80 1004.7
20260906022049 81 205 2.0 4.0 0.00 0.00 0.00 80 1004.6
20260906021549 81 202 1.0 4.0 0.00 0.00 0.00 80 1004.5
20260906021048 81 202 1.0 3.0 0.00 0.00 0.00 80 1004.4
20260906020548 81 202 1.0 2.0 0.00 0.00 0.00 80 1004.2
20260906020049 81 202 1.0 3.0 0.00 0.00 0.00 80 1004.1
20260906015548 82 202 1.0 5.0 0.00 0.01 0.00 79 1004.0
20260906015048 82 202 1.0 5.0 0.00 0.01 0.00 79 1003.9
20260906014553 82 208 2.0 6.0 0.00 0.01 0.00 79 1003.7
20260906014047 82 204 2.0 6.0 0.00 0.01 0.00 79 1003.6
20260906013548 82 182 2.0 6.0 0.00 0.01 0.00 79 1003.5
20260906013048 82 190 3.0 7.0 0.00 0.01 0.00 79 1003.4
20260906012547 82 215 3.0 7.0 0.00 0.01 0.00 78 1003.4
20260906012047 82 209 4.0 7.0 0.00 0.01 0.00 78 1003.4
20260906011547 82 213 3.0 6.0 0.00 0.01 0.00 78 1003.3
20260906011048 82 211 3.0 6.0 0.00 0.01 0.00 78 1003.2
20260906010546 82 238 3.0 7.0 0.00 0.01 0.00 77 1003.3
20260906010047 83 271 3.0 6.0 0.00 0.01 0.00 77 1003.2
20260906005546 83 246 3.0 7.0 0.00 0.01 0.00 76 1003.0
20260906005050 83 232 2.0 7.0 0.00 0.01 0.00 76 1002.8
20260906004546 83 202 3.0 7.0 0.00 0.01 0.00 76 1002.8
20260906004046 83 190 4.0 7.0 0.00 0.01 0.00 76 1002.8
20260906003546 83 222 3.0 9.0 0.00 0.01 0.00 76 1002.6
20260906003046 83 245 4.0 10.0 0.00 0.01 0.00 76 1002.7
20260906002546 84 216 5.0 10.0 0.00 0.01 0.00 76 1002.6
20260906002048 84 216 6.0 10.0 0.00 0.01 0.00 76 1002.6
20260906001545 85 246 5.0 8.0 0.00 0.01 0.00 76 1002.5
20260906001045 85 263 4.0 8.0 0.00 0.01 0.00 76 1002.4
20260906000545 85 226 2.0 7.0 0.00 0.01 0.00 75 1002.4
20260906000045 86 215 4.0 7.0 0.00 0.01 0.00 74 1002.4
20260905235544 86 211 3.0 8.0 0.00 0.04 0.00 74 1002.2
20260905235047 87 200 5.0 8.0 0.00 0.04 0.00 73 1002.4
20260905234545 87 181 5.0 8.0 0.00 0.04 0.00 73 1002.5
20260905234044 87 171 3.0 5.0 0.00 0.04 0.00 72 1002.5
20260905233544 87 171 4.0 6.0 0.00 0.04 0.00 72 1002.6
20260905233045 88 183 2.0 6.0 0.00 0.04 0.00 71 1002.6
20260905232544 88 187 3.0 7.0 0.00 0.04 0.00 71 1002.6
20260905232044 88 215 2.0 7.0 0.00 0.04 0.00 71 1002.5
20260905231543 88 198 2.0 9.0 0.00 0.04 0.00 70 1002.5
20260905231041 88 205 3.0 9.0 0.00 0.04 0.00 69 1002.6
20260905230542 89 152 4.0 9.0 0.00 0.04 0.00 69 1002.7
20260905230041 89 188 6.0 10.0 0.00 0.04 0.00 67 1002.8
20260905225542 90 169 6.0 10.0 0.00 0.05 0.00 65 1002.8
20260905225042 90 220 5.0 9.0 0.00 0.05 0.00 63 1002.7
20260905224541 91 216 4.0 7.0 0.00 0.05 0.00 62 1002.9
20260905224040 91 221 4.0 7.0 0.00 0.05 0.00 61 1002.8
20260905223541 91 193 6.0 7.0 0.00 0.05 0.00 60 1002.9
20260905223040 91 242 2.0 7.0 0.00 0.05 0.00 60 1002.9
20260905222541 91 250 4.0 7.0 0.00 0.05 0.00 61 1003.0
20260905222041 91 258 4.0 9.0 0.00 0.05 0.00 61 1003.1
20260905221539 92 227 3.0 9.0 0.00 0.05 0.00 59 1003.0
20260905221040 92 221 3.0 7.0 0.00 0.05 0.00 59 1003.0
20260905220539 93 202 2.0 7.0 0.00 0.05 0.00 58 1003.0
20260905220038 93 202 3.0 9.0 0.00 0.05 0.00 59 1002.9
20260905215539 93 242 5.0 9.0 0.00 0.05 0.00 59 1002.9
20260905215039 93 192 5.0 8.0 0.00 0.05 0.00 60 1003.0
20260905214538 92 275 4.0 10.0 0.00 0.05 0.00 61 1003.0
20260905214038 92 214 6.0 10.0 0.00 0.05 0.00 60 1002.9
20260905213538 92 234 2.0 10.0 0.00 0.05 0.00 59 1002.8
20260905213037 92 237 6.0 10.0 0.00 0.05 0.00 59 1003.0
20260905212539 92 259 3.0 10.0 0.00 0.05 0.00 59 1003.0
20260905212038 92 226 7.0 11.0 0.00 0.05 0.00 60 1003.1
20260905211538 91 258 6.0 10.0 0.00 0.05 0.00 60 1003.0
20260905211036 91 294 2.0 7.0 0.00 0.05 0.00 64 1003.2
20260905210536 91 238 3.0 11.0 0.00 0.05 0.00 63 1003.2
20260905210035 92 263 6.0 11.0 0.00 0.05 0.00 62 1003.2
20260905205535 92 206 3.0 8.0 0.00 0.05 0.00 62 1003.2
20260905205035 91 231 5.0 10.0 0.00 0.05 0.00 64 1003.0
20260905204535 91 302 4.0 10.0 0.00 0.05 0.00 63 1003.0
20260905204034 91 284 6.0 10.0 0.00 0.05 0.00 63 1003.0
20260905203536 91 273 5.0 8.0 0.00 0.05 0.00 63 1003.1
20260905203035 91 218 4.0 10.0 0.00 0.05 0.00 63 1003.2
20260905202536 92 264 5.0 10.0 0.00 0.05 0.00 61 1003.2
20260905202035 91 261 4.0 11.0 0.00 0.05 0.00 62 1003.2
20260905201532 92 291 5.0 12.0 0.00 0.05 0.00 61 1003.3
20260905201031 93 254 5.0 12.0 0.00 0.05 0.00 61 1003.5
20260905200532 91 183 4.0 9.0 0.00 0.05 0.00 62 1003.6
20260905200034 90 253 4.0 9.0 0.00 0.05 0.00 62 1003.6
20260905195529 90 211 5.0 14.0 0.00 0.05 0.00 61 1003.7
20260905195027 89 278 6.0 10.0 0.00 0.05 0.00 64 1003.8
20260905194527 90 294 5.0 10.0 0.00 0.05 0.00 63 1003.8
20260905194026 91 274 6.0 11.0 0.00 0.05 0.00 64 1003.8
20260905193531 90 289 7.0 11.0 0.00 0.05 0.00 65 1003.9
20260905193028 89 272 2.0 9.0 0.00 0.05 0.00 67 1003.9
20260905192526 90 215 1.0 9.0 0.00 0.05 0.00 65 1004.1
20260905192023 90 236 4.0 9.0 0.00 0.05 0.00 65 1004.2
20260905191531 90 288 2.0 7.0 0.00 0.05 0.00 64 1004.2
20260905191025 90 273 3.0 7.0 0.00 0.05 0.00 65 1004.1
20260905190522 89 213 2.0 9.0 0.00 0.05 0.00 66 1004.3
20260905190031 88 286 4.0 9.0 0.00 0.05 0.00 69 1004.3
20260905185521 88 5 2.0 8.0 0.00 0.05 0.00 69 1004.4
20260905185022 88 327 3.0 8.0 0.00 0.05 0.00 68 1004.5
20260905184525 89 296 4.0 13.0 0.00 0.05 0.00 66 1004.6
20260905184022 90 259 3.0 9.0 0.00 0.05 0.00 65 1004.6
20260905183521 90 258 4.0 8.0 0.00 0.05 0.00 64 1004.7
20260905183019 88 236 2.0 9.0 0.00 0.05 0.00 68 1004.8
20260905182518 88 340 6.0 10.0 0.00 0.05 0.00 68 1004.9
20260905182018 88 288 5.0 10.0 0.00 0.05 0.00 68 1005.0
20260905181517 88 288 2.0 9.0 0.00 0.05 0.00 67 1004.9
20260905181017 89 234 5.0 9.0 0.00 0.05 0.00 67 1004.9
20260905180516 89 302 5.0 10.0 0.00 0.05 0.00 65 1005.0
20260905180016 88 243 5.0 12.0 0.00 0.05 0.00 67 1005.0
20260905175517 88 248 7.0 12.0 0.00 0.05 0.00 68 1005.1
20260905175019 88 240 7.0 10.0 0.00 0.05 0.00 68 1005.1
20260905174519 87 245 6.0 10.0 0.00 0.05 0.00 68 1005.1
20260905174013 88 312 5.0 8.0 0.00 0.05 0.00 70 1005.2
20260905173513 87 251 2.0 6.0 0.00 0.05 0.00 69 1005.4
20260905173014 86 219 2.0 8.0 0.00 0.05 0.00 71 1005.5
20260905172512 85 284 5.0 9.0 0.00 0.05 0.00 72 1005.7
20260905172113 85 264 6.0 10.0 0.00 0.05 0.00 72 1005.7
20260905171511 86 302 5.0 10.0 0.00 0.05 0.00 71 1005.8
20260905171010 87 300 5.0 9.0 0.00 0.05 0.00 70 1005.8
20260905170510 86 245 2.0 8.0 0.00 0.05 0.00 71 1005.8
20260905170010 86 273 5.0 10.0 0.00 0.05 0.00 74 1005.9
20260905165509 86 302 4.0 10.0 0.00 0.05 0.00 73 1005.9
20260905165009 86 290 1.0 7.0 0.00 0.05 0.00 72 1005.9
20260905164509 86 329 2.0 8.0 0.00 0.05 0.00 73 1005.9
20260905164009 87 262 3.0 8.0 0.00 0.05 0.00 70 1006.1
20260905163509 87 236 4.0 8.0 0.00 0.05 0.00 70 1006.1
20260905163007 87 236 3.0 8.0 0.00 0.05 0.00 72 1006.1
20260905162510 87 279 3.0 8.0 0.00 0.05 0.00 72 1006.2
20260905162006 86 238 3.0 8.0 0.00 0.05 0.00 73 1006.3
20260905161504 84 286 5.0 10.0 0.00 0.05 0.00 76 1006.3
20260905161003 85 292 5.0 10.0 0.00 0.05 0.00 74 1006.4
20260905160502 85 229 3.0 7.0 0.00 0.05 0.00 76 1006.5
20260905160001 84 302 2.0 9.0 0.00 0.05 0.00 78 1006.6
20260905155606 83 280 5.0 9.0 0.00 0.05 0.00 78 1006.6
20260905155059 83 306 2.0 8.0 0.00 0.05 0.00 80 1006.6
20260905154559 83 301 5.0 8.0 0.00 0.05 0.00 79 1006.7
20260905154101 82 270 3.0 7.0 0.00 0.05 0.00 81 1006.9
20260905153558 82 282 3.0 9.0 0.00 0.05 0.00 81 1006.9
20260905153109 82 290 5.0 8.0 0.00 0.05 0.00 80 1006.8
20260905152556 82 268 2.0 6.0 0.00 0.05 0.00 81 1006.9
20260905152055 82 355 2.0 7.0 0.00 0.05 0.00 82 1006.9
20260905151557 82 269 3.0 8.0 0.00 0.05 0.00 83 1006.9
20260905151053 81 288 3.0 8.0 0.00 0.05 0.00 83 1006.9
20260905150551 81 297 1.0 7.0 0.00 0.05 0.00 85 1006.9
20260905150054 80 277 3.0 8.0 0.00 0.05 0.00 85 1006.8
20260905145551 80 288 4.0 8.0 0.00 0.05 0.00 84 1006.8
20260905145049 80 11 2.0 8.0 0.00 0.05 0.00 87 1006.8
20260905144549 79 304 2.0 8.0 0.00 0.05 0.00 87 1006.8
20260905144051 79 281 2.0 5.0 0.00 0.05 0.00 88 1006.8
20260905143548 79 286 3.0 6.0 0.00 0.05 0.00 88 1006.8
20260905143046 78 266 3.0 6.0 0.00 0.05 0.00 88 1006.8
20260905142544 78 298 2.0 5.0 0.00 0.05 0.00 89 1006.8
20260905142044 78 294 4.0 6.0 0.00 0.05 0.00 89 1006.8
20260905141555 78 298 4.0 6.0 0.00 0.05 0.00 89 1006.8
20260905141044 78 252 2.0 7.0 0.00 0.05 0.00 90 1006.8
20260905140541 77 281 4.0 7.0 0.00 0.05 0.00 90 1006.7
20260905140041 77 263 2.0 7.0 0.00 0.05 0.00 91 1006.8
20260905135540 77 265 4.0 7.0 0.00 0.05 0.00 91 1006.9
20260905135040 77 286 2.0 7.0 0.00 0.05 0.00 91 1006.8
20260905134539 77 280 3.0 7.0 0.00 0.05 0.00 91 1006.8
20260905134039 77 270 4.0 6.0 0.00 0.05 0.00 91 1006.7
20260905133538 77 271 2.0 6.0 0.00 0.05 0.00 91 1006.8
20260905133037 76 271 3.0 6.0 0.00 0.05 0.00 92 1006.7
20260905132638 76 267 2.0 4.0 0.00 0.05 0.00 92 1006.8
20260905132040 76 267 1.0 6.0 0.00 0.05 0.00 92 1006.8
20260905131536 76 285 2.0 3.0 0.00 0.05 0.00 92 1006.8
20260905131035 76 286 1.0 4.0 0.00 0.05 0.00 93 1006.8
20260905130535 76 286 2.0 4.0 0.00 0.05 0.00 92 1006.8
20260905130034 76 286 2.0 4.0 0.00 0.05 0.00 92 1006.9
20260905125533 76 288 0.0 7.0 0.00 0.05 0.00 92 1006.8